Time,TemperatureF,DewpointF,PressureIn,WindDirection,WindDirectionDegrees,WindSpeedMPH,WindSpeedGustMPH,Humidity,HourlyPrecipIn,Conditions,Clouds,dailyrainin,SoftwareType,DateUTC
2013-02-18 00:02:00,66.0,38.0,29.95,SE,134,3.0,3.0,35,0.00,,,0.00,,2013-02-18 06:02:00,
2013-02-18 08:53:00,66.0,38.0,29.95,SE,134,3.0,3.0,35,0.00,,,0.00,,2013-02-18 14:53:00,
2013-02-18 09:02:00,61.0,55.0,29.85,SSW,195,3.0,10.0,81,0.00,,,0.00,,2013-02-18 15:02:00,
2013-02-18 09:11:00,61.0,55.0,29.85,SSW,195,3.0,10.0,81,0.00,,,0.00,,2013-02-18 15:11:00,
2013-02-18 09:22:00,62.0,56.0,29.85,SSW,197,3.0,12.0,80,0.00,,,0.00,,2013-02-18 15:22:00,
2013-02-18 09:32:00,63.0,56.0,29.85,SSW,209,3.0,9.0,78,0.00,,,0.00,,2013-02-18 15:32:00,
2013-02-18 09:42:00,63.0,56.0,29.85,SSW,209,3.0,9.0,78,0.00,,,0.00,,2013-02-18 15:42:00,
2013-02-18 10:02:00,65.0,57.0,29.85,SW,219,4.0,12.0,75,0.00,,,0.00,,2013-02-18 16:02:00,
2013-02-18 10:12:00,65.0,57.0,29.85,SW,219,4.0,12.0,75,0.00,,,0.00,,2013-02-18 16:12:00,
2013-02-18 10:22:00,65.0,56.0,29.85,WSW,238,5.0,12.0,74,0.00,,,0.00,,2013-02-18 16:22:00,
2013-02-18 10:32:00,67.0,58.0,29.85,SW,222,4.0,16.0,72,0.00,,,0.00,,2013-02-18 16:32:00,
2013-02-18 10:42:00,67.0,58.0,29.85,SW,222,4.0,16.0,72,0.00,,,0.00,,2013-02-18 16:42:00,
2013-02-18 10:52:00,67.0,57.0,29.84,WSW,240,5.0,14.0,70,0.00,,,0.00,,2013-02-18 16:52:00,
2013-02-18 11:03:00,68.0,57.0,29.84,WSW,241,4.0,13.0,69,0.00,,,0.00,,2013-02-18 17:03:00,
2013-02-18 11:12:00,68.0,57.0,29.84,WSW,241,4.0,13.0,69,0.00,,,0.00,,2013-02-18 17:12:00,
2013-02-18 11:22:00,69.0,58.0,29.84,SW,235,4.0,16.0,67,0.00,,,0.00,,2013-02-18 17:22:00,
2013-02-18 11:32:00,70.0,57.0,29.83,WSW,250,5.0,16.0,63,0.00,,,0.00,,2013-02-18 17:32:00,
2013-02-18 11:42:00,70.0,57.0,29.83,WSW,250,5.0,16.0,63,0.00,,,0.00,,2013-02-18 17:42:00,
2013-02-18 11:52:00,71.0,57.0,29.83,WSW,237,6.0,13.0,61,0.00,,,0.00,,2013-02-18 17:52:00,
2013-02-18 12:02:00,73.0,57.0,29.83,WSW,249,5.0,23.0,57,0.00,,,0.00,,2013-02-18 18:02:00,
2013-02-18 12:12:00,73.0,57.0,29.83,WSW,249,5.0,23.0,57,0.00,,,0.00,,2013-02-18 18:12:00,
2013-02-18 12:22:00,73.0,56.0,29.83,WSW,253,4.0,16.0,56,0.00,,,0.00,,2013-02-18 18:22:00,
2013-02-18 12:32:00,74.0,54.0,29.82,WSW,252,5.0,17.0,49,0.00,,,0.00,,2013-02-18 18:32:00,
2013-02-18 12:42:00,74.0,54.0,29.82,WSW,252,5.0,17.0,49,0.00,,,0.00,,2013-02-18 18:42:00,
2013-02-18 12:52:00,74.0,52.0,29.82,West,262,6.0,14.0,47,0.00,,,0.00,,2013-02-18 18:52:00,
2013-02-18 13:02:00,75.0,52.0,29.81,West,264,5.0,16.0,44,0.00,,,0.00,,2013-02-18 19:02:00,
2013-02-18 13:12:00,75.0,52.0,29.81,West,264,5.0,16.0,44,0.00,,,0.00,,2013-02-18 19:12:00,
2013-02-18 13:22:00,76.0,51.0,29.81,WSW,251,8.0,22.0,42,0.00,,,0.00,,2013-02-18 19:22:00,
2013-02-18 13:33:00,77.0,50.0,29.81,WSW,253,6.0,15.0,39,0.00,,,0.00,,2013-02-18 19:33:00,
2013-02-18 13:42:00,77.0,50.0,29.81,WSW,253,6.0,15.0,39,0.00,,,0.00,,2013-02-18 19:42:00,
2013-02-18 13:52:00,76.0,49.0,29.81,WSW,255,6.0,15.0,38,0.00,,,0.00,,2013-02-18 19:52:00,
2013-02-18 14:02:00,76.0,49.0,29.81,West,273,7.0,16.0,38,0.00,,,0.00,,2013-02-18 20:02:00,
2013-02-18 14:12:00,76.0,49.0,29.81,West,273,7.0,16.0,38,0.00,,,0.00,,2013-02-18 20:12:00,
2013-02-18 14:22:00,76.0,46.0,29.80,West,273,6.0,18.0,35,0.00,,,0.00,,2013-02-18 20:22:00,
2013-02-18 14:33:00,77.0,46.0,29.80,West,264,7.0,22.0,34,0.00,,,0.00,,2013-02-18 20:33:00,
2013-02-18 14:42:00,77.0,46.0,29.80,West,264,7.0,22.0,34,0.00,,,0.00,,2013-02-18 20:42:00,
2013-02-18 14:53:00,76.0,45.0,29.80,West,274,10.0,20.0,33,0.00,,,0.00,,2013-02-18 20:53:00,
2013-02-18 15:03:00,71.0,42.0,29.83,NW,313,13.0,22.0,35,0.00,,,0.00,,2013-02-18 21:03:00,
2013-02-18 15:12:00,71.0,42.0,29.83,NW,313,13.0,22.0,35,0.00,,,0.00,,2013-02-18 21:12:00,
2013-02-18 15:22:00,70.0,40.0,29.83,NW,314,10.0,18.0,34,0.00,,,0.00,,2013-02-18 21:22:00,
2013-02-18 15:32:00,69.0,39.0,29.85,NW,306,10.0,20.0,34,0.00,,,0.00,,2013-02-18 21:32:00,
2013-02-18 15:42:00,69.0,39.0,29.85,NW,306,10.0,20.0,34,0.00,,,0.00,,2013-02-18 21:42:00,
2013-02-18 15:52:00,68.0,39.0,29.85,WNW,302,10.0,22.0,34,0.00,,,0.00,,2013-02-18 21:52:00,
2013-02-18 16:02:00,67.0,39.0,29.86,NW,325,12.0,22.0,36,0.00,,,0.00,,2013-02-18 22:02:00,
2013-02-18 16:12:00,66.0,38.0,29.86,NW,309,12.0,18.0,36,0.00,,,0.00,,2013-02-18 22:12:00,
2013-02-18 16:22:00,66.0,38.0,29.86,NW,309,12.0,18.0,36,0.00,,,0.00,,2013-02-18 22:22:00,
2013-02-18 16:33:00,66.0,38.0,29.89,NW,305,11.0,20.0,36,0.00,,,0.00,,2013-02-18 22:33:00,
2013-02-18 16:43:00,66.0,38.0,29.89,NW,305,11.0,20.0,36,0.00,,,0.00,,2013-02-18 22:43:00,
2013-02-18 16:52:00,65.0,38.0,29.90,NW,310,10.0,20.0,37,0.00,,,0.00,,2013-02-18 22:52:00,
2013-02-18 17:02:00,65.0,39.0,29.91,West,269,10.0,23.0,38,0.00,,,0.00,,2013-02-18 23:02:00,
2013-02-18 17:12:00,65.0,39.0,29.91,West,269,10.0,23.0,38,0.00,,,0.00,,2013-02-18 23:12:00,
2013-02-18 17:22:00,64.0,39.0,29.91,WNW,302,8.0,17.0,39,0.00,,,0.00,,2013-02-18 23:22:00,
2013-02-18 17:33:00,64.0,39.0,29.92,WNW,287,12.0,21.0,39,0.00,,,0.00,,2013-02-18 23:33:00,
2013-02-18 17:42:00,64.0,39.0,29.92,WNW,287,12.0,21.0,39,0.00,,,0.00,,2013-02-18 23:42:00,
2013-02-18 17:53:00,63.0,38.0,29.93,NW,305,10.0,17.0,39,0.00,,,0.00,,2013-02-18 23:53:00,
2013-02-18 18:02:00,63.0,38.0,29.94,NW,306,10.0,20.0,40,0.00,,,0.00,,2013-02-19 00:02:00,
2013-02-18 18:12:00,63.0,38.0,29.94,NW,306,10.0,20.0,40,0.00,,,0.00,,2013-02-19 00:12:00,
2013-02-18 18:22:00,62.0,37.0,29.96,WNW,295,8.0,15.0,40,0.00,,,0.00,,2013-02-19 00:22:00,
2013-02-18 18:33:00,61.0,38.0,29.97,NW,321,6.0,14.0,42,0.00,,,0.00,,2013-02-19 00:33:00,
2013-02-18 18:43:00,61.0,38.0,29.97,NW,321,6.0,14.0,42,0.00,,,0.00,,2013-02-19 00:43:00,
2013-02-18 18:54:00,61.0,38.0,29.98,NW,311,7.0,17.0,42,0.00,,,0.00,,2013-02-19 00:54:00,
2013-02-18 19:03:00,60.0,37.0,29.99,WNW,303,6.0,15.0,43,0.00,,,0.00,,2013-02-19 01:03:00,
2013-02-18 19:13:00,60.0,37.0,29.99,WNW,303,6.0,15.0,43,0.00,,,0.00,,2013-02-19 01:13:00,
2013-02-18 19:23:00,60.0,37.0,29.99,NW,323,6.0,13.0,43,0.00,,,0.00,,2013-02-19 01:23:00,
2013-02-18 19:33:00,59.0,37.0,30.01,NW,321,6.0,13.0,44,0.00,,,0.00,,2013-02-19 01:33:00,
2013-02-18 19:43:00,59.0,37.0,30.01,NW,321,6.0,13.0,44,0.00,,,0.00,,2013-02-19 01:43:00,
2013-02-18 19:53:00,59.0,37.0,30.03,NW,304,5.0,13.0,44,0.00,,,0.00,,2013-02-19 01:53:00,
2013-02-18 20:02:00,58.0,36.0,30.03,NW,321,6.0,13.0,44,0.00,,,0.00,,2013-02-19 02:02:00,
2013-02-18 20:13:00,58.0,36.0,30.03,NW,321,6.0,13.0,44,0.00,,,0.00,,2013-02-19 02:13:00,
2013-02-18 20:22:00,58.0,37.0,30.04,NW,313,6.0,15.0,45,0.00,,,0.00,,2013-02-19 02:22:00,
2013-02-18 20:34:00,57.0,36.0,30.05,NW,315,5.0,12.0,45,0.00,,,0.00,,2013-02-19 02:34:00,
2013-02-18 20:42:00,57.0,36.0,30.05,NW,315,5.0,12.0,45,0.00,,,0.00,,2013-02-19 02:42:00,
2013-02-18 20:52:00,57.0,36.0,30.05,NW,308,5.0,10.0,45,0.00,,,0.00,,2013-02-19 02:52:00,
2013-02-18 21:05:00,56.0,36.0,30.07,NW,314,3.0,12.0,46,0.00,,,0.00,,2013-02-19 03:05:00,
2013-02-18 21:13:00,56.0,36.0,30.07,NW,314,3.0,12.0,46,0.00,,,0.00,,2013-02-19 03:13:00,
2013-02-18 21:23:00,56.0,36.0,30.08,NW,320,4.0,12.0,46,0.00,,,0.00,,2013-02-19 03:23:00,
2013-02-18 21:33:00,56.0,36.0,30.09,WNW,283,3.0,9.0,46,0.00,,,0.00,,2013-02-19 03:33:00,
2013-02-18 21:44:00,56.0,36.0,30.09,WNW,283,3.0,9.0,46,0.00,,,0.00,,2013-02-19 03:44:00,
2013-02-18 21:52:00,56.0,36.0,30.09,WNW,283,3.0,9.0,46,0.00,,,0.00,,2013-02-19 03:52:00,
2013-02-18 22:02:00,55.0,35.0,30.11,WNW,303,2.0,9.0,47,0.00,,,0.00,,2013-02-19 04:02:00,
2013-02-18 22:14:00,55.0,35.0,30.11,WNW,303,2.0,9.0,47,0.00,,,0.00,,2013-02-19 04:14:00,
2013-02-18 22:22:00,54.0,34.0,30.12,NW,304,2.0,7.0,47,0.00,,,0.00,,2013-02-19 04:22:00,
2013-02-18 22:33:00,54.0,34.0,30.14,NW,312,2.0,9.0,47,0.00,,,0.00,,2013-02-19 04:33:00,
2013-02-18 22:43:00,54.0,34.0,30.14,NW,312,2.0,9.0,47,0.00,,,0.00,,2013-02-19 04:43:00,
2013-02-18 22:52:00,54.0,34.0,30.14,NW,322,2.0,5.0,47,0.00,,,0.00,,2013-02-19 04:52:00,
2013-02-18 23:02:00,53.0,34.0,30.14,NNW,348,3.0,9.0,48,0.00,,,0.00,,2013-02-19 05:02:00,
2013-02-18 23:12:00,53.0,34.0,30.14,NNW,348,3.0,9.0,48,0.00,,,0.00,,2013-02-19 05:12:00,
2013-02-18 23:22:00,53.0,34.0,30.15,NNW,331,2.0,9.0,48,0.00,,,0.00,,2013-02-19 05:22:00,
2013-02-18 23:32:00,52.0,33.0,30.15,NE,40,1.0,7.0,48,0.00,,,0.00,,2013-02-19 05:32:00,
2013-02-18 23:43:00,52.0,33.0,30.15,NE,40,1.0,7.0,48,0.00,,,0.00,,2013-02-19 05:43:00,
2013-02-18 23:52:00,52.0,33.0,30.15,North,0,4.0,12.0,48,0.00,,,0.00,,2013-02-19 05:52:00,